Time,TemperatureF,DewpointF,PressureIn,WindDirection,WindDirectionDegrees,WindSpeedMPH,WindSpeedGustMPH,Humidity,HourlyPrecipIn,Conditions,Clouds,dailyrainin,SolarRadiationWatts/m^2,SoftwareType,DateUTC
2013-03-09 00:03:00,34.0,23.0,-100.00,ESE,117,4.0,10.0,64,0.00,,,0.00,0.000000,,2013-03-09 05:03:00,
2013-03-09 00:32:00,35.0,23.0,-100.00,ESE,111,4.0,5.0,62,0.00,,,0.00,0.000000,,2013-03-09 05:32:00,
2013-03-09 00:43:00,35.0,23.0,-100.00,ESE,111,4.0,5.0,62,0.00,,,0.00,0.000000,,2013-03-09 05:43:00,
2013-03-09 00:53:00,35.0,23.0,-100.00,ESE,111,4.0,5.0,62,0.00,,,0.00,0.000000,,2013-03-09 05:53:00,
2013-03-09 01:02:00,35.0,23.0,-100.00,ESE,111,4.0,5.0,62,0.00,,,0.00,0.000000,,2013-03-09 06:02:00,
2013-03-09 01:32:00,33.0,24.0,-100.00,East,99,7.0,7.0,70,0.00,,,0.00,0.000000,,2013-03-09 06:32:00,
2013-03-09 01:42:00,33.0,24.0,-100.00,East,99,7.0,7.0,70,0.00,,,0.00,0.000000,,2013-03-09 06:42:00,
2013-03-09 01:52:00,33.0,24.0,-100.00,East,99,7.0,7.0,70,0.00,,,0.00,0.000000,,2013-03-09 06:52:00,
2013-03-09 02:01:00,33.0,24.0,-100.00,East,99,7.0,7.0,70,0.00,,,0.00,0.000000,,2013-03-09 07:01:00,
2013-03-09 02:32:00,31.0,24.0,-100.00,East,84,7.0,8.0,76,0.00,,,0.00,0.000000,,2013-03-09 07:32:00,
2013-03-09 02:42:00,31.0,24.0,-100.00,East,84,7.0,8.0,76,0.00,,,0.00,0.000000,,2013-03-09 07:42:00,
2013-03-09 02:52:00,31.0,24.0,-100.00,East,84,7.0,8.0,76,0.00,,,0.00,0.000000,,2013-03-09 07:52:00,
2013-03-09 03:01:00,31.0,24.0,-100.00,East,84,7.0,8.0,76,0.00,,,0.00,0.000000,,2013-03-09 08:01:00,
2013-03-09 03:32:00,31.0,23.0,-100.00,East,98,7.0,10.0,72,0.00,,,0.00,0.000000,,2013-03-09 08:32:00,
2013-03-09 03:42:00,31.0,23.0,-100.00,East,98,7.0,10.0,72,0.00,,,0.00,0.000000,,2013-03-09 08:42:00,
2013-03-09 03:52:00,31.0,23.0,-100.00,East,98,7.0,10.0,72,0.00,,,0.00,0.000000,,2013-03-09 08:52:00,
2013-03-09 04:02:00,31.0,23.0,-100.00,East,98,7.0,10.0,72,0.00,,,0.00,0.000000,,2013-03-09 09:02:00,
2013-03-09 04:32:00,31.0,23.0,-100.00,ESE,103,6.0,10.0,71,0.00,,,0.00,0.000000,,2013-03-09 09:32:00,
2013-03-09 04:42:00,31.0,23.0,-100.00,ESE,103,6.0,10.0,71,0.00,,,0.00,0.000000,,2013-03-09 09:42:00,
2013-03-09 04:52:00,31.0,23.0,-100.00,ESE,103,6.0,10.0,71,0.00,,,0.00,0.000000,,2013-03-09 09:52:00,
2013-03-09 05:01:00,31.0,23.0,-100.00,ESE,103,6.0,10.0,71,0.00,,,0.00,0.000000,,2013-03-09 10:01:00,
2013-03-09 05:32:00,31.0,23.0,-100.00,ESE,102,6.0,9.0,72,0.00,,,0.00,0.000000,,2013-03-09 10:32:00,
2013-03-09 05:42:00,31.0,23.0,-100.00,ESE,102,6.0,9.0,72,0.00,,,0.00,0.000000,,2013-03-09 10:42:00,
2013-03-09 05:52:00,31.0,23.0,-100.00,ESE,102,6.0,9.0,72,0.00,,,0.00,0.000000,,2013-03-09 10:52:00,
2013-03-09 06:01:00,31.0,23.0,-100.00,ESE,102,6.0,9.0,72,0.00,,,0.00,0.000000,,2013-03-09 11:01:00,
2013-03-09 06:32:00,30.0,23.0,-100.00,East,90,7.0,9.0,76,0.00,,,-99.99,0.000000,,2013-03-09 11:32:00,
2013-03-09 06:42:00,30.0,23.0,-100.00,East,90,7.0,9.0,76,0.00,,,-99.99,0.000000,,2013-03-09 11:42:00,
2013-03-09 06:52:00,30.0,23.0,-100.00,East,90,7.0,9.0,76,0.00,,,-99.99,0.000000,,2013-03-09 11:52:00,
2013-03-09 07:02:00,30.0,23.0,-100.00,East,90,7.0,9.0,76,0.00,,,-99.99,0.000000,,2013-03-09 12:02:00,
2013-03-09 07:32:00,30.0,23.0,-100.00,East,88,7.0,10.0,76,0.00,,,0.00,2.000000,,2013-03-09 12:32:00,
2013-03-09 07:42:00,30.0,23.0,-100.00,East,88,7.0,10.0,76,0.00,,,0.00,2.000000,,2013-03-09 12:42:00,
2013-03-09 07:52:00,30.0,23.0,-100.00,East,88,7.0,10.0,76,0.00,,,0.00,2.000000,,2013-03-09 12:52:00,
2013-03-09 08:02:00,30.0,23.0,-100.00,East,88,7.0,10.0,76,0.00,,,0.00,2.000000,,2013-03-09 13:02:00,
2013-03-09 08:32:00,34.0,25.0,-100.00,East,97,6.0,15.0,68,0.00,,,0.00,91.000000,,2013-03-09 13:32:00,
2013-03-09 08:42:00,34.0,25.0,-100.00,East,97,6.0,15.0,68,0.00,,,0.00,91.000000,,2013-03-09 13:42:00,
2013-03-09 08:52:00,34.0,25.0,-100.00,East,97,6.0,15.0,68,0.00,,,0.00,91.000000,,2013-03-09 13:52:00,
2013-03-09 09:01:00,34.0,25.0,-100.00,East,97,6.0,15.0,68,0.00,,,0.00,91.000000,,2013-03-09 14:01:00,
2013-03-09 09:32:00,41.0,27.0,-100.00,ESE,108,5.0,12.0,58,0.00,,,0.00,283.000000,,2013-03-09 14:32:00,
2013-03-09 09:42:00,41.0,27.0,-100.00,ESE,108,5.0,12.0,58,0.00,,,0.00,283.000000,,2013-03-09 14:42:00,
2013-03-09 09:52:00,41.0,27.0,-100.00,ESE,108,5.0,12.0,58,0.00,,,0.00,283.000000,,2013-03-09 14:52:00,
2013-03-09 10:02:00,41.0,27.0,-100.00,ESE,108,5.0,12.0,58,0.00,,,0.00,283.000000,,2013-03-09 15:02:00,
2013-03-09 10:32:00,46.0,27.0,-100.00,ESE,118,11.0,16.0,48,0.00,,,0.00,485.000000,,2013-03-09 15:32:00,
2013-03-09 10:42:00,46.0,27.0,-100.00,ESE,118,11.0,16.0,48,0.00,,,0.00,485.000000,,2013-03-09 15:42:00,
2013-03-09 10:52:00,46.0,27.0,-100.00,ESE,118,11.0,16.0,48,0.00,,,0.00,485.000000,,2013-03-09 15:52:00,
2013-03-09 11:01:00,46.0,27.0,-100.00,ESE,118,11.0,16.0,48,0.00,,,0.00,485.000000,,2013-03-09 16:01:00,
2013-03-09 11:32:00,52.0,29.0,-100.00,SE,134,6.0,15.0,41,0.00,,,0.00,675.000000,,2013-03-09 16:32:00,
2013-03-09 11:42:00,52.0,29.0,-100.00,SE,134,6.0,15.0,41,0.00,,,0.00,675.000000,,2013-03-09 16:42:00,
2013-03-09 11:52:00,52.0,29.0,-100.00,SE,134,6.0,15.0,41,0.00,,,0.00,675.000000,,2013-03-09 16:52:00,
2013-03-09 12:01:00,52.0,29.0,-100.00,SE,134,6.0,15.0,41,0.00,,,0.00,675.000000,,2013-03-09 17:01:00,
2013-03-09 12:32:00,57.0,30.0,-100.00,SE,139,4.0,10.0,35,0.00,,,0.00,766.000000,,2013-03-09 17:32:00,
2013-03-09 12:42:00,57.0,30.0,-100.00,SE,139,4.0,10.0,35,0.00,,,0.00,766.000000,,2013-03-09 17:42:00,
2013-03-09 12:52:00,57.0,30.0,-100.00,SE,139,4.0,10.0,35,0.00,,,0.00,766.000000,,2013-03-09 17:52:00,
2013-03-09 13:02:00,57.0,30.0,-100.00,SE,139,4.0,10.0,35,0.00,,,0.00,766.000000,,2013-03-09 18:02:00,
2013-03-09 13:32:00,60.0,28.0,-100.00,SE,145,5.0,10.0,30,0.00,,,0.00,714.000000,,2013-03-09 18:32:00,
2013-03-09 13:42:00,60.0,28.0,-100.00,SE,145,5.0,10.0,30,0.00,,,0.00,714.000000,,2013-03-09 18:42:00,
2013-03-09 13:52:00,60.0,28.0,-100.00,SE,145,5.0,10.0,30,0.00,,,0.00,714.000000,,2013-03-09 18:52:00,
2013-03-09 14:02:00,60.0,28.0,-100.00,SE,145,5.0,10.0,30,0.00,,,0.00,714.000000,,2013-03-09 19:02:00,
2013-03-09 14:32:00,63.0,26.0,-100.00,South,188,6.0,12.0,24,0.00,,,0.00,899.000000,,2013-03-09 19:32:00,
2013-03-09 14:42:00,63.0,26.0,-100.00,South,188,6.0,12.0,24,0.00,,,0.00,899.000000,,2013-03-09 19:42:00,
2013-03-09 14:52:00,63.0,26.0,-100.00,South,188,6.0,12.0,24,0.00,,,0.00,899.000000,,2013-03-09 19:52:00,
2013-03-09 15:02:00,63.0,26.0,-100.00,South,188,6.0,12.0,24,0.00,,,0.00,899.000000,,2013-03-09 20:02:00,
2013-03-09 15:32:00,64.0,23.0,-100.00,SSE,152,6.0,11.0,21,0.00,,,0.00,799.000000,,2013-03-09 20:32:00,
2013-03-09 15:42:00,64.0,23.0,-100.00,SSE,152,6.0,11.0,21,0.00,,,0.00,799.000000,,2013-03-09 20:42:00,
2013-03-09 15:52:00,64.0,23.0,-100.00,SSE,152,6.0,11.0,21,0.00,,,0.00,799.000000,,2013-03-09 20:52:00,
2013-03-09 16:02:00,64.0,23.0,-100.00,SSE,152,6.0,11.0,21,0.00,,,0.00,799.000000,,2013-03-09 21:02:00,
2013-03-09 16:32:00,65.0,23.0,-100.00,SE,145,7.0,13.0,20,0.00,,,0.00,640.000000,,2013-03-09 21:32:00,
2013-03-09 16:42:00,65.0,23.0,-100.00,SE,145,7.0,13.0,20,0.00,,,0.00,640.000000,,2013-03-09 21:42:00,
2013-03-09 16:52:00,65.0,23.0,-100.00,SE,145,7.0,13.0,20,0.00,,,0.00,640.000000,,2013-03-09 21:52:00,
2013-03-09 17:01:00,65.0,23.0,-100.00,SE,145,7.0,13.0,20,0.00,,,0.00,640.000000,,2013-03-09 22:01:00,
2013-03-09 17:32:00,64.0,22.0,-100.00,SSW,194,4.0,12.0,20,0.00,,,0.00,327.000000,,2013-03-09 22:32:00,
2013-03-09 17:42:00,64.0,22.0,-100.00,SSW,194,4.0,12.0,20,0.00,,,0.00,327.000000,,2013-03-09 22:42:00,
2013-03-09 17:52:00,64.0,22.0,-100.00,SSW,194,4.0,12.0,20,0.00,,,0.00,327.000000,,2013-03-09 22:52:00,
2013-03-09 18:01:00,64.0,22.0,-100.00,SSW,194,4.0,12.0,20,0.00,,,0.00,327.000000,,2013-03-09 23:01:00,
2013-03-09 18:32:00,61.0,23.0,-100.00,SE,129,3.0,10.0,23,0.00,,,0.00,65.000000,,2013-03-09 23:32:00,
2013-03-09 18:42:00,61.0,23.0,-100.00,SE,129,3.0,10.0,23,0.00,,,0.00,65.000000,,2013-03-09 23:42:00,
2013-03-09 18:52:00,61.0,23.0,-100.00,SE,129,3.0,10.0,23,0.00,,,0.00,65.000000,,2013-03-09 23:52:00,
2013-03-09 19:02:00,61.0,23.0,-100.00,SE,129,3.0,10.0,23,0.00,,,0.00,65.000000,,2013-03-10 00:02:00,
2013-03-09 19:32:00,59.0,23.0,-100.00,SE,134,6.0,7.0,25,0.00,,,0.00,6.000000,,2013-03-10 00:32:00,
2013-03-09 19:43:00,59.0,23.0,-100.00,SE,134,6.0,7.0,25,0.00,,,0.00,6.000000,,2013-03-10 00:43:00,
2013-03-09 19:52:00,59.0,23.0,-100.00,SE,134,6.0,7.0,25,0.00,,,0.00,6.000000,,2013-03-10 00:52:00,
2013-03-09 20:01:00,59.0,23.0,-100.00,SE,134,6.0,7.0,25,0.00,,,0.00,6.000000,,2013-03-10 01:01:00,
2013-03-09 20:32:00,59.0,22.0,-100.00,SE,142,5.0,8.0,24,0.00,,,-99.99,0.000000,,2013-03-10 01:32:00,
2013-03-09 20:42:00,59.0,22.0,-100.00,SE,142,5.0,8.0,24,0.00,,,-99.99,0.000000,,2013-03-10 01:42:00,
2013-03-09 20:52:00,59.0,22.0,-100.00,SE,142,5.0,8.0,24,0.00,,,-99.99,0.000000,,2013-03-10 01:52:00,
2013-03-09 21:01:00,59.0,22.0,-100.00,SE,142,5.0,8.0,24,0.00,,,-99.99,0.000000,,2013-03-10 02:01:00,
2013-03-09 21:32:00,59.0,23.0,-100.00,South,178,5.0,9.0,25,0.00,,,-99.99,0.000000,,2013-03-10 02:32:00,
2013-03-09 21:42:00,59.0,23.0,-100.00,South,178,5.0,9.0,25,0.00,,,-99.99,0.000000,,2013-03-10 02:42:00,
2013-03-09 21:52:00,59.0,23.0,-100.00,South,178,5.0,9.0,25,0.00,,,-99.99,0.000000,,2013-03-10 02:52:00,
2013-03-09 22:02:00,59.0,23.0,-100.00,South,178,5.0,9.0,25,0.00,,,-99.99,0.000000,,2013-03-10 03:02:00,
2013-03-09 22:32:00,57.0,26.0,-100.00,SSW,197,8.0,11.0,30,0.00,,,0.00,0.000000,,2013-03-10 03:32:00,
2013-03-09 22:42:00,57.0,26.0,-100.00,SSW,197,8.0,11.0,30,0.00,,,0.00,0.000000,,2013-03-10 03:42:00,
2013-03-09 22:52:00,57.0,26.0,-100.00,SSW,197,8.0,11.0,30,0.00,,,0.00,0.000000,,2013-03-10 03:52:00,
2013-03-09 23:01:00,57.0,26.0,-100.00,SSW,197,8.0,11.0,30,0.00,,,0.00,0.000000,,2013-03-10 04:01:00,
2013-03-09 23:32:00,55.0,27.0,-100.00,SSW,192,9.0,13.0,34,0.00,,,0.00,0.000000,,2013-03-10 04:32:00,
2013-03-09 23:42:00,55.0,27.0,-100.00,SSW,192,9.0,13.0,34,0.00,,,0.00,0.000000,,2013-03-10 04:42:00,
2013-03-09 23:52:00,55.0,27.0,-100.00,SSW,192,9.0,13.0,34,0.00,,,0.00,0.000000,,2013-03-10 04:52:00,